sat.trackr.live / text

‹ back to catalog

STARLINK-5183

NORAD 54084 · 2022-136AK

PAYLOAD ACTIVE UNKNOWN

§ Identity

Operator
Country
US
Launch date
2022-10-20
Launch site
AFETR
Launch vehicle
Mass (kg)
RCS (m²)

Purposes: comms

External: N2YO · Heavens-Above · Gunter

§ Orbital elements

Epoch: 2026-09-20T22:00:03.000096Z

Period
94.44 min
Inclination
53.1592°
Eccentricity
0.0001277
Mean motion
15.24841166 rev/d
Perigee alt
490.4 km
Apogee alt
492.1 km
Semi-major
6,869.4 km
B*
4.7296e-4
RAAN
176.0084°
Arg perigee
102.0401°
Mean anomaly
185.4030°
Rev number
580

§ Raw data

STARLINK-51831 54084U 22136AK  26263.91670139  .00011579  00000+0  47296-3 0  99932 54084  53.1592 176.0084 0001277 102.0401 185.4030 15.24841166  5801

JSON: /api/v1/satellites/54084 · /tle

For live sub-satellite position, see the globe view (requires WebGL).

§ Visibility from observer

Set your observer location to see the next 7 days of passes ≥ 10°. The values pass through the URL so the page stays shareable.

No JS? Fill the form by hand. The geolocation button needs JavaScript.